Weather History for KMCJ - August, 2013

Change the Weather History Date:

Sunday, August 25, 2013

  Actual Average (KHOU) Record (KHOU)
Temperature  
Mean Temperature 80 °F 84 °F  
Max Temperature 86 °F 94 °F 103 °F (1924)
Min Temperature 75 °F 75 °F 55 °F (1891)
Cooling Degree Days 16 19  
Month to date cooling degree days 497  
Year to date cooling degree days 2270  
Since 1 June cooling degree days 1618  
Growing Degree Days 30 (Base 50)    
Moisture  
Dew Point 73 °F    
Average Humidity 82    
Maximum Humidity 94    
Minimum Humidity 62    
Precipitation  
Precipitation 0.09 in 0.13 in 1.90 in (1931)
Month to date precipitation 2.88  
Year to date precipitation 30.99  
Sea Level Pressure  
Sea Level Pressure 30.01 in    
Wind  
Wind Speed 12 mph (East)    
Max Wind Speed 23 mph    
Max Gust Speed 29 mph    
Visibility 9 miles    
Events      
T = Trace of Precipitation, MM = Missing Value Source: NWS Daily Summary

Daily Weather History Graph

Daily Weather History Graph

Search for Another Location

Airport or City:

Trip Planner

Search our weather history database for the weather conditions in past years. The results will help you decide how hot, cold, wet, or windy it might be!

Date:

Astronomy

Aug. 25, 2013 Rise Set
Actual Time 6:55 AM CDT 7:51 PM CDT
Civil Twilight 6:30 AM CDT 8:15 PM CDT
Nautical Twilight 6:01 AM CDT 8:44 PM CDT
Astronomical Twilight 5:31 AM CDT 9:14 PM CDT
Moon 10:51 PM CDT (8/25) 11:31 AM CDT (8/25)
Length of Visible Light 13h 45m
Length of Day
12h 56m
Waning Gibbous, 75% of the Moon is Illuminated
Aug 25
Waning Gibbous
Aug 28
Last Quarter
Sep 5
New
Sep 12
First Quarter
Sep 19
Full

Hourly Weather History & Observations

Time (CDT) Temp. Heat Index Dew Point Humidity Pressure Visibility Wind Dir Wind Speed Gust Speed Precip Events Conditions
12:15 AM 82.4 °F 87.2 °F 71.6 °F 70% 29.98 in 10.0 mi ESE 11.5 mph - N/A   Clear
12:35 AM 82.4 °F 87.2 °F 71.6 °F 70% 29.99 in 10.0 mi ESE 5.8 mph - N/A   Partly Cloudy
12:55 AM 80.6 °F 84.6 °F 71.6 °F 74% 29.99 in 10.0 mi East 13.8 mph - N/A   Mostly Cloudy
1:15 AM 80.6 °F 84.6 °F 71.6 °F 74% 29.99 in 10.0 mi East 16.1 mph - N/A   Mostly Cloudy
1:35 AM 80.6 °F 85.4 °F 73.4 °F 79% 29.98 in 10.0 mi ENE 12.7 mph - N/A   Scattered Clouds
1:55 AM 80.6 °F 85.4 °F 73.4 °F 79% 29.98 in 10.0 mi East 9.2 mph - N/A   Partly Cloudy
2:15 AM 78.8 °F - 73.4 °F 83% 29.98 in 10.0 mi NE 11.5 mph - N/A   Partly Cloudy
2:35 AM 77.0 °F - 73.4 °F 89% 29.97 in 10.0 mi NE 10.4 mph - N/A   Scattered Clouds
2:55 AM 78.8 °F - 73.4 °F 83% 29.98 in 10.0 mi ENE 10.4 mph - N/A   Mostly Cloudy
3:15 AM 77.0 °F - 73.4 °F 89% 29.98 in 10.0 mi ENE 11.5 mph - N/A   Mostly Cloudy
3:35 AM 77.0 °F - 73.4 °F 89% 29.98 in 10.0 mi ENE 11.5 mph 17.3 mph N/A   Overcast
3:55 AM 77.0 °F - 71.6 °F 83% 29.97 in 10.0 mi ENE 9.2 mph - N/A   Overcast
4:15 AM 77.0 °F - 73.4 °F 89% 29.97 in 10.0 mi NE 15.0 mph - N/A   Mostly Cloudy
4:35 AM 77.0 °F - 71.6 °F 83% 29.98 in 10.0 mi ENE 12.7 mph 17.3 mph N/A   Mostly Cloudy
4:55 AM 77.0 °F - 71.6 °F 83% 29.99 in 10.0 mi ENE 13.8 mph - N/A   Overcast
5:15 AM 77.0 °F - 71.6 °F 83% 29.99 in 10.0 mi ENE 15.0 mph - N/A   Overcast
5:35 AM 77.0 °F - 71.6 °F 83% 29.99 in 10.0 mi ENE 15.0 mph 18.4 mph N/A   Overcast
5:55 AM 77.0 °F - 71.6 °F 83% 30.00 in 10.0 mi ENE 15.0 mph - N/A   Overcast
6:15 AM 77.0 °F - 71.6 °F 83% 30.00 in 10.0 mi ENE 12.7 mph 17.3 mph N/A   Overcast
6:35 AM 77.0 °F - 71.6 °F 83% 30.00 in 10.0 mi ENE 11.5 mph - N/A   Overcast
6:55 AM 75.2 °F - 71.6 °F 89% 29.99 in 10.0 mi ENE 15.0 mph - N/A   Overcast
7:15 AM 75.2 °F - 71.6 °F 89% 29.99 in 10.0 mi ENE 17.3 mph - N/A   Mostly Cloudy
7:35 AM 75.2 °F - 71.6 °F 89% 30.00 in 9.0 mi ENE 13.8 mph 18.4 mph N/A   Mostly Cloudy
7:55 AM 75.2 °F - 71.6 °F 89% 30.01 in 8.0 mi NE 11.5 mph - N/A   Overcast
8:15 AM 75.2 °F - 71.6 °F 89% 30.02 in 9.0 mi ENE 11.5 mph 17.3 mph N/A   Overcast
8:35 AM 77.0 °F - 71.6 °F 83% 30.03 in 9.0 mi ENE 13.8 mph - N/A   Overcast
8:55 AM 77.0 °F - 71.6 °F 83% 30.02 in 9.0 mi ENE 12.7 mph 17.3 mph N/A   Overcast
9:15 AM 77.0 °F - 71.6 °F 83% 30.02 in 10.0 mi ENE 12.7 mph - N/A   Overcast
9:35 AM 77.0 °F - 73.4 °F 89% 30.03 in 9.0 mi ENE 9.2 mph - N/A   Overcast
9:55 AM 78.8 °F - 73.4 °F 83% 30.03 in 10.0 mi East 10.4 mph 16.1 mph N/A   Overcast
10:15 AM 78.8 °F - 73.4 °F 83% 30.03 in 10.0 mi East 15.0 mph - N/A   Overcast
10:35 AM 78.8 °F - 73.4 °F 83% 30.03 in 10.0 mi East 9.2 mph - N/A   Overcast
10:55 AM 78.8 °F - 73.4 °F 83% 30.04 in 10.0 mi East 15.0 mph - N/A   Overcast
11:15 AM 78.8 °F - 73.4 °F 83% 30.05 in 10.0 mi ENE 16.1 mph - N/A   Overcast
11:35 AM 78.8 °F - 73.4 °F 83% 30.05 in 9.0 mi East 15.0 mph - N/A   Overcast
11:55 AM 80.6 °F 85.4 °F 73.4 °F 79% 30.05 in 9.0 mi East 13.8 mph - N/A   Overcast
12:15 PM 80.6 °F 85.4 °F 73.4 °F 79% 30.05 in 9.0 mi East 15.0 mph 19.6 mph N/A   Overcast
12:35 PM 82.4 °F 88.2 °F 73.4 °F 74% 30.04 in 10.0 mi ENE 16.1 mph 21.9 mph N/A   Mostly Cloudy
12:55 PM 82.4 °F 88.2 °F 73.4 °F 74% 30.04 in 10.0 mi ESE 15.0 mph - N/A   Mostly Cloudy
1:15 PM 80.6 °F 85.4 °F 73.4 °F 79% 30.04 in 6.0 mi East 11.5 mph - N/A   Overcast
1:35 PM 77.0 °F - 73.4 °F 89% 30.04 in 2.0 mi East 16.1 mph - 0.02 in   Overcast
1:55 PM 78.8 °F - 75.2 °F 89% 30.04 in 9.0 mi East 9.2 mph - 0.03 in   Mostly Cloudy
2:15 PM 80.6 °F 86.2 °F 75.2 °F 84% 30.03 in 9.0 mi East 12.7 mph - N/A   Mostly Cloudy
2:35 PM 80.6 °F 85.4 °F 73.4 °F 79% 30.02 in 10.0 mi East 13.8 mph 23.0 mph N/A   Mostly Cloudy
2:55 PM 82.4 °F 88.2 °F 73.4 °F 74% 30.02 in 9.0 mi ESE 13.8 mph - N/A   Mostly Cloudy
3:15 PM 82.4 °F 88.2 °F 73.4 °F 74% 30.01 in 9.0 mi SE 12.7 mph - N/A   Mostly Cloudy
3:35 PM 82.4 °F 88.2 °F 73.4 °F 74% 30.01 in 10.0 mi ESE 12.7 mph - N/A   Scattered Clouds
3:55 PM 84.2 °F 90.9 °F 73.4 °F 70% 30.01 in 10.0 mi ESE 17.3 mph 21.9 mph N/A   Clear
4:15 PM 86.0 °F 93.4 °F 73.4 °F 66% 30.01 in 9.0 mi ESE 13.8 mph 19.6 mph N/A   Clear
4:35 PM 86.0 °F 93.4 °F 73.4 °F 66% 30.00 in 10.0 mi ESE 13.8 mph 19.6 mph N/A   Scattered Clouds
4:55 PM 86.0 °F 93.4 °F 73.4 °F 66% 30.00 in 10.0 mi ESE 11.5 mph - N/A   Scattered Clouds
5:15 PM 84.2 °F 90.9 °F 73.4 °F 70% 30.00 in 10.0 mi SE 9.2 mph 16.1 mph N/A   Scattered Clouds
5:35 PM 86.0 °F 93.4 °F 73.4 °F 66% 30.00 in 9.0 mi East 15.0 mph 18.4 mph N/A   Scattered Clouds
5:55 PM 84.2 °F 89.6 °F 71.6 °F 66% 30.00 in 10.0 mi East 17.3 mph 24.2 mph N/A   Partly Cloudy
6:15 PM 84.2 °F 88.4 °F 69.8 °F 62% 30.00 in 10.0 mi ESE 23.0 mph 28.8 mph N/A   Partly Cloudy
6:35 PM 78.8 °F - 73.4 °F 83% 30.01 in 7.0 mi East 13.8 mph - 0.02 in   Mostly Cloudy
6:55 PM 80.6 °F 85.4 °F 73.4 °F 79% 30.01 in 10.0 mi ESE 12.7 mph - 0.02 in   Mostly Cloudy
7:15 PM 77.0 °F - 73.4 °F 89% 30.01 in 4.0 mi East 15.0 mph - 0.03 in   Mostly Cloudy
7:35 PM 78.8 °F - 73.4 °F 83% 30.01 in 10.0 mi East 15.0 mph - 0.03 in   Mostly Cloudy
7:55 PM 77.0 °F - 73.4 °F 89% 30.02 in 1.2 mi SE 10.4 mph - 0.03 in   Overcast
8:15 PM 77.0 °F - 73.4 °F 89% 30.03 in 10.0 mi ESE 16.1 mph - N/A   Mostly Cloudy
8:35 PM 77.0 °F - 73.4 °F 89% 30.03 in 10.0 mi ESE 8.1 mph - N/A   Mostly Cloudy
8:55 PM 77.0 °F - 73.4 °F 89% 30.04 in 10.0 mi SE 10.4 mph - N/A   Mostly Cloudy
9:15 PM 77.0 °F - 73.4 °F 89% 30.04 in 10.0 mi SE 10.4 mph - N/A   Scattered Clouds
9:35 PM 77.0 °F - 73.4 °F 89% 30.05 in 10.0 mi ESE 9.2 mph - 0.01 in   Mostly Cloudy
9:55 PM 77.0 °F - 73.4 °F 89% 30.05 in 10.0 mi ESE 10.4 mph - 0.01 in   Scattered Clouds
10:15 PM 77.0 °F - 75.2 °F 94% 30.06 in 10.0 mi South 6.9 mph - N/A   Mostly Cloudy
10:35 PM 77.0 °F - 73.4 °F 89% 30.06 in 9.0 mi East 9.2 mph - N/A   Overcast
10:55 PM 77.0 °F - 75.2 °F 94% 30.06 in 10.0 mi ESE 10.4 mph - N/A   Partly Cloudy
11:15 PM 77.0 °F - 75.2 °F 94% 30.05 in 10.0 mi ESE 11.5 mph - N/A   Clear
11:35 PM 77.0 °F - 73.4 °F 89% 30.05 in 10.0 mi ESE 10.4 mph - N/A   Partly Cloudy
11:55 PM 77.0 °F - 73.4 °F 89% 30.05 in 10.0 mi East 10.4 mph - N/A   Scattered Clouds